DRAGON CRS-18 DEB (44448 NORAD) Tracking and Keplerian Element Data

This shows tracking and keplerian element data for the satellite.

Feedback or suggestion? Click here.




ElementValue
Catalog44448
NameDRAGON CRS-18 DEB
Epoch Orbit129
Epoch Day214.94551617
Epoch Year2019
RAAN126.125
Inclination51.6395
Eccentricity0.0018701
Argument of Perigee98.8567
Mean Anonmoly318.3032
Mean Motion16.4367519
Decay Rate0.16700188
L11 44448U 19044C 19214.94551617 .16700188 12453-4 45140-3 0 9994
L22 44448 51.6395 126.1250 0018701 98.8567 318.3032 16.43675190 1296



Live tracking and technical data element details for DRAGON CRS-18 DEB (NORAD 44448). DRAGON CRS-18 DEB can be tracked NOW for your location showing map with azimuth and elevation plus other details from your city location.







IsCatalogInMostPopularTable: catalog: 44448, numindb: 305
Update: records affected: 1



GetName: 44448 DRAGON CRS-18 DEB

Hit Count: updated at: Thu, 15 May 2025 19:03:44 GMT